{"data":{"norad_id":59308,"intl_designator":"2024-056N","name":"STARLINK-31485","alt_names":[],"object_type":"PAYLOAD","status":"ACTIVE","operator":null,"country":"US","launch_date":"2024-03-24","launch_site_code":"AFETR","launch_vehicle":null,"mission":null,"orbit_class":"UNKNOWN","rcs_meters":null,"size_class":null,"mass_kg":null,"dimensions":null,"purposes":["comms"],"wikipedia_slug":null,"has_3d_model":false,"image_url":null,"decayed_at":null,"tle_current":{"epoch":"2026-05-25T01:50:18.259008Z","epoch_age_seconds":68196,"freshness":"FRESH","line1":"1 59308U 24056N   26145.07660022  .00000714  00000+0  35464-4 0  9990","line2":"2 59308  42.9999 159.5780 0000989 277.5778  82.4961 15.27574979122835","mean_motion":15.27574979,"eccentricity":9.89e-5,"inclination_deg":42.9999,"raan_deg":159.578,"arg_perigee_deg":277.5778,"mean_anomaly_deg":82.4961,"bstar":3.5464e-5,"rev_number":12283,"period_min":94.26705855988,"perigee_km":482.3855579693,"apogee_km":483.74270355296,"semimajor_km":6861.2011307611,"source":"CELESTRAK","updated_at":"2026-05-25T13:38:18.900184Z"}}}